When you browse on this site, cookies collect data to enhance your experience and personalize the content and advertising you see.
Visit our Privacy Policy to learn more. By continuing to use the site, you agree to this use of cookies and data.
  • In Hungary
  • List of Countries
  • For 7 days
  • Water Temperature
  • Satellite Maps
  • Weather Map
  • News
  • Weather Widgets
  • user-avatar
    Login

    Hourly Weather Modlibogowice

    Today, 19 December, Wednesday

    Time Temperature Precipitation Wind Pressure Humidity
    00:00 -1°C° 0 mm 3 mps 761 mmHg 91%
    01:00 -1°C° 0 mm 3 mps 761 mmHg 90%
    02:00 -2°C° 0 mm 3 mps 761 mmHg 89%
    03:00 -3°C° 0 mm 4 mps 761 mmHg 88%
    04:00 -3°C° 0 mm 4 mps 760 mmHg 87%
    05:00 -3°C° 0 mm 4 mps 760 mmHg 87%
    06:00 -3°C° 0 mm 4 mps 760 mmHg 87%
    07:00 -5°C° 0 mm 5 mps 760 mmHg 88%
    08:00 -4°C° 0 mm 5 mps 760 mmHg 86%
    09:00 -4°C° 0 mm 5 mps 759 mmHg 84%
    10:00 -4°C° 0 mm 6 mps 759 mmHg 82%
    11:00 -3°C° 0 mm 6 mps 759 mmHg 80%
    12:00 -3°C° 0 mm 6 mps 759 mmHg 77%
    13:00 -2°C° 0 mm 6 mps 758 mmHg 75%
    14:00 -2°C° 0 mm 5 mps 758 mmHg 77%
    15:00 -2°C° 0 mm 5 mps 757 mmHg 78%
    16:00 -2°C° 0 mm 5 mps 757 mmHg 79%
    17:00 -2°C° 0 mm 5 mps 757 mmHg 79%
    18:00 -2°C° 0 mm 5 mps 757 mmHg 80%
    19:00 -2°C° 0 mm 5 mps 757 mmHg 80%
    20:00 -2°C° 0 mm 5 mps 756 mmHg 80%
    21:00 -2°C° 0 mm 5 mps 756 mmHg 80%
    22:00 -2°C° 0 mm 5 mps 756 mmHg 80%
    23:00 -2°C° 0 mm 4 mps 756 mmHg 80%

    Tomorrow, 20 December, Thursday

    Time Temperature Precipitation Wind Pressure Humidity
    00:00 -2°C° 0 mm 4 mps 756 mmHg 80%
    01:00 -2°C° 0 mm 4 mps 756 mmHg 80%
    02:00 -1°C° 0 mm 3 mps 755 mmHg 80%
    03:00 -1°C° 0 mm 3 mps 755 mmHg 80%
    04:00 -1°C° 0 mm 3 mps 755 mmHg 81%
    05:00 -1°C° 0.1 mm 3 mps 755 mmHg 81%
    06:00 -1°C° 0.1 mm 3 mps 755 mmHg 81%
    07:00 -1°C° 0.1 mm 3 mps 755 mmHg 81%
    08:00 -1°C° 0 mm 3 mps 755 mmHg 80%
    09:00 -1°C° 0 mm 3 mps 755 mmHg 78%
    10:00 -1°C° 0 mm 3 mps 755 mmHg 77%
    11:00 -1°C° 0 mm 3 mps 755 mmHg 77%
    12:00 -1°C° 0 mm 3 mps 755 mmHg 77%
    13:00 -1°C° 0 mm 3 mps 754 mmHg 78%
    14:00 -1°C° 0.1 mm 3 mps 754 mmHg 80%
    15:00 -1°C° 0.1 mm 3 mps 754 mmHg 83%
    16:00 -1°C° 0.1 mm 3 mps 754 mmHg 86%
    17:00 -1°C° 0.1 mm 3 mps 754 mmHg 87%
    18:00 -1°C° 0.1 mm 3 mps 754 mmHg 89%
    19:00 -1°C° 0.1 mm 3 mps 754 mmHg 91%
    20:00 -1°C° 0.1 mm 3 mps 754 mmHg 91%
    21:00 0°C° 0.1 mm 3 mps 754 mmHg 92%
    22:00 0°C° 0.1 mm 3 mps 754 mmHg 92%
    23:00 0°C° 0 mm 3 mps 754 mmHg 92%

    Day after tomorrow, 21 December, Friday

    Time Temperature Precipitation Wind Pressure Humidity
    00:00 -1°C° 0 mm 4 mps 754 mmHg 92%
    01:00 -1°C° 0 mm 4 mps 754 mmHg 92%
    02:00 -1°C° 0 mm 4 mps 754 mmHg 92%
    03:00 -1°C° 0 mm 4 mps 753 mmHg 92%
    04:00 -1°C° 0 mm 4 mps 753 mmHg 92%
    05:00 -1°C° 0 mm 4 mps 753 mmHg 92%
    06:00 -1°C° 0 mm 4 mps 753 mmHg 92%
    07:00 0°C° 0 mm 4 mps 753 mmHg 92%
    08:00 0°C° 0 mm 4 mps 752 mmHg 92%
    09:00 0°C° 0 mm 4 mps 752 mmHg 91%
    10:00 0°C° 0 mm 5 mps 752 mmHg 91%
    11:00 0°C° 0 mm 4 mps 751 mmHg 91%
    12:00 +1°C° 0 mm 4 mps 750 mmHg 91%
    13:00 +1°C° 0 mm 4 mps 750 mmHg 90%
    14:00 +1°C° 0.1 mm 4 mps 749 mmHg 90%
    15:00 0°C° 0.1 mm 4 mps 748 mmHg 90%
    16:00 0°C° 0.1 mm 4 mps 748 mmHg 90%
    17:00 0°C° 0.3 mm 5 mps 747 mmHg 90%
    18:00 0°C° 0.3 mm 5 mps 746 mmHg 90%
    19:00 0°C° 0.3 mm 5 mps 746 mmHg 90%
    20:00 0°C° 0.8 mm 5 mps 745 mmHg 91%
    21:00 +1°C° 0.8 mm 5 mps 744 mmHg 92%
    22:00 +1°C° 0.8 mm 5 mps 743 mmHg 92%
    23:00 +2°C° 1 mm 6 mps 742 mmHg 91%

    22 December, Saturday

    Time Temperature Precipitation Wind Pressure Humidity
    00:00 +3°C° 1 mm 6 mps 742 mmHg 91%
    01:00 +4°C° 1 mm 7 mps 741 mmHg 90%
    02:00 +4°C° 0 mm 7 mps 741 mmHg 87%
    03:00 +2°C° 0 mm 8 mps 741 mmHg 84%
    04:00 +2°C° 0 mm 8 mps 741 mmHg 81%
    05:00 +3°C° 0 mm 7 mps 742 mmHg 83%
    06:00 +3°C° 0 mm 7 mps 742 mmHg 84%
    07:00 +2°C° 0 mm 6 mps 742 mmHg 85%
    08:00 +3°C° 0 mm 6 mps 742 mmHg 85%
    09:00 +3°C° 0 mm 7 mps 743 mmHg 85%
    10:00 +4°C° 0 mm 7 mps 743 mmHg 85%
    11:00 +4°C° 0 mm 7 mps 743 mmHg 85%
    12:00 +4°C° 0 mm 7 mps 743 mmHg 85%
    13:00 +5°C° 0 mm 7 mps 742 mmHg 84%
    14:00 +4°C° 0.6 mm 6 mps 742 mmHg 87%
    15:00 +4°C° 0.6 mm 6 mps 742 mmHg 89%
    16:00 +5°C° 0.6 mm 5 mps 742 mmHg 91%
    17:00 +4°C° 0.2 mm 6 mps 742 mmHg 89%
    18:00 +4°C° 0.2 mm 7 mps 742 mmHg 87%
    19:00 +4°C° 0.2 mm 7 mps 743 mmHg 85%
    20:00 +4°C° 0.2 mm 8 mps 743 mmHg 83%
    21:00 +3°C° 0.2 mm 9 mps 744 mmHg 82%
    22:00 +3°C° 0.2 mm 10 mps 745 mmHg 81%
    23:00 +2°C° 0.1 mm 10 mps 746 mmHg 81%

    23 December, Sunday

    Time Temperature Precipitation Wind Pressure Humidity
    00:00 +1°C° 0.1 mm 9 mps 747 mmHg 81%
    01:00 +1°C° 0.1 mm 9 mps 748 mmHg 81%
    02:00 0°C° 0 mm 7 mps 749 mmHg 84%
    03:00 +1°C° 0 mm 6 mps 750 mmHg 87%
    04:00 +1°C° 0 mm 5 mps 751 mmHg 90%
    05:00 0°C° 0 mm 4 mps 752 mmHg 91%
    06:00 0°C° 0 mm 4 mps 752 mmHg 93%
    07:00 +1°C° 0 mm 3 mps 753 mmHg 95%
    08:00 +2°C° 0 mm 2 mps 753 mmHg 94%
    09:00 +2°C° 0 mm 2 mps 753 mmHg 93%
    10:00 +2°C° 0 mm 2 mps 754 mmHg 92%
    11:00 +3°C° 0 mm 2 mps 754 mmHg 90%
    12:00 +3°C° 0 mm 2 mps 754 mmHg 87%
    13:00 +4°C° 0 mm 2 mps 754 mmHg 85%
    14:00 +4°C° 0.1 mm 2 mps 754 mmHg 88%
    15:00 +3°C° 0.1 mm 2 mps 754 mmHg 90%
    16:00 +2°C° 0.1 mm 3 mps 754 mmHg 92%
    17:00 +2°C° 0.2 mm 3 mps 754 mmHg 91%
    18:00 +3°C° 0.2 mm 4 mps 754 mmHg 90%
    19:00 +2°C° 0.2 mm 5 mps 754 mmHg 89%
    20:00 +2°C° 0 mm 5 mps 754 mmHg 89%
    21:00 +2°C° 0 mm 5 mps 754 mmHg 88%
    22:00 +2°C° 0 mm 5 mps 754 mmHg 88%
    23:00 +2°C° 0.1 mm 5 mps 754 mmHg 88%

    24 December, Monday

    Time Temperature Precipitation Wind Pressure Humidity
    00:00 +2°C° 0.1 mm 5 mps 754 mmHg 87%
    01:00 +2°C° 0.1 mm 5 mps 753 mmHg 87%
    02:00 +2°C° 0.2 mm 6 mps 753 mmHg 87%
    03:00 +2°C° 0.2 mm 6 mps 753 mmHg 88%
    04:00 +2°C° 0.2 mm 6 mps 753 mmHg 88%
    05:00 +2°C° 0.4 mm 6 mps 753 mmHg 86%
    06:00 +2°C° 0.4 mm 7 mps 753 mmHg 85%
    07:00 +2°C° 0.4 mm 7 mps 753 mmHg 83%
    08:00 +2°C° 0.1 mm 7 mps 754 mmHg 82%
    09:00 +1°C° 0.1 mm 8 mps 755 mmHg 81%
    10:00 +1°C° 0.1 mm 8 mps 755 mmHg 80%
    11:00 +2°C° 0 mm 7 mps 756 mmHg 78%
    12:00 +2°C° 0 mm 7 mps 757 mmHg 77%
    13:00 +2°C° 0 mm 6 mps 757 mmHg 75%
    14:00 +2°C° 0 mm 5 mps 758 mmHg 78%
    15:00 +1°C° 0 mm 4 mps 758 mmHg 80%
    16:00 +2°C° 0 mm 3 mps 759 mmHg 82%
    17:00 +1°C° 0.1 mm 4 mps 759 mmHg 84%
    18:00 +1°C° 0.1 mm 4 mps 760 mmHg 85%
    19:00 +1°C° 0.1 mm 4 mps 760 mmHg 86%
    20:00 +1°C° 0.1 mm 4 mps 760 mmHg 86%
    21:00 +1°C° 0.1 mm 4 mps 760 mmHg 86%
    22:00 +1°C° 0.1 mm 4 mps 761 mmHg 86%
    23:00 0°C° 0 mm 4 mps 761 mmHg 86%
    Show more